PEGASUS DEB

Satellite information

Favourite Embed

Satellite Type and Status

DEBRISIN ORBIT

Key statistics

Satellite PEGASUS DEB at a glance.

Uptime

11486

Days in orbit

Revolutions

≈ 14.3

Per day

Orbit

LEO

Low Earth Orbit

Inclination

81.3

Latest

Satellite identification and parameters

Extended collection of information and parameters for PEGASUS DEB.

Object identification

Identified? True

Debris? True

Object name: PEGASUS DEB

International designator: 1994-029AFM

Object number (NORAD): 39914

Object ID (CCSDS): 39914

Country: UNITED STATES OF AMERICA (US)

Current information (Y/N): Y

RCS size: SMALL

Orbital parameters

Period: 100.615 minutes

Inclination: 81.3437 deg

SMA: 7165.885 km

Apoapsis: 1034.261 km

Periapsis: 541.238 km

RAAN: 206.6342 deg

Eccentricy: 0.03440075

Argument of periapsis: 83.52 deg

Mean anomaly: 280.5023 deg

Mean motion: 14.31192469 rev/day

Mean motion (dot): 0.00009465 rev/day2

B* drag term: 0.0018564798 1/REarth

Two-line elements (TLE)

Creation date: Oct. 28, 2025, 2:18 a.m.

Reference frame: TEME

Reference center: EARTH

Epoch: Oct. 27, 2025, 11:27 a.m. UTC

TLE line 0: 0 PEGASUS DEB

TLE line 1: 1 39914U 94029AFM 25300.47743479 .00009465 00000-0 18565-2 0 9996

TLE line 2: 2 39914 81.3437 206.6342 0344008 83.5200 280.5023 14.31192469585822

Live tracking on map

Real-time ground track for satellite PEGASUS DEB.

In-orbit conjunctions

A list of the most updated potential collisions computed for object PEGASUS DEB.

Target Orbit TCA Probability of collision Miss distance Type
CZ-6A DEB LEO 2024-11-07 02:33:57 0.0002283595 229.0 (m) DEBRIS
FENGYUN 1C DEB SSO 2024-09-24 20:45:21 0.0003705736 521.0 (m) DEBRIS

Associated space launch

PEGASUS DEB was lifted into orbit during the mission ‘Pegasus HAPS | Space Test Experiments Platform 2 (STEP-2)’, on board a Pegasus HAPS space rocket.

The launch took place on May 19, 1994, 5:03 p.m. from Edwards Air Force Base.

For more information about the launch, click the button.

Launch to space Pegasus HAPS | Space Test Experiments Platform 2 (STEP-2)
Pegasus HAPS | Space Test Experiments Platform 2 (STEP-2)

Agency: N/A

Status: Launch Successful

Launch date: May 19, 1994, 5:03 p.m. UTC

Rocket: Pegasus HAPS

Launch pad: Edwards Air Force Base

Location: Air launch to orbit

...

Latest news about this satellite

There are no fresh news available about this satellite. Check back as we update our databases every day.


Newsletter sign-up

Weekly statistics, charts and insights to help you stay on top of the space industry.